Year,Month,Day,Hour,Minute,Value (Times are PST for temperature in C)
2008,08,05,00,00,18.50
2008,08,05,00,01,18.40
2008,08,05,00,02,18.30
2008,08,05,00,03,18.20
2008,08,05,00,04,18.20
2008,08,05,00,05,18.10
2008,08,05,00,06,18.10
2008,08,05,00,07,18.00
2008,08,05,00,08,17.90
2008,08,05,00,09,17.90
2008,08,05,00,10,17.90
2008,08,05,00,11,17.90
2008,08,05,00,12,17.90
2008,08,05,01,02,17.70
2008,08,05,01,03,17.70
2008,08,05,01,04,17.60
2008,08,05,01,05,17.50
2008,08,05,01,06,17.50
2008,08,05,01,07,17.40
2008,08,05,01,08,17.30
2008,08,05,01,09,17.30
2008,08,05,01,10,17.20
2008,08,05,01,11,17.10
2008,08,05,01,12,17.00
2008,08,05,01,13,16.90
2008,08,05,01,14,16.80
2008,08,05,01,15,16.70
2008,08,05,01,16,16.70
2008,08,05,01,17,16.60
2008,08,05,01,18,16.50
2008,08,05,01,19,16.40
2008,08,05,01,20,16.30
2008,08,05,01,21,16.20
2008,08,05,01,22,16.10
2008,08,05,01,23,16.10
2008,08,05,01,24,15.90
2008,08,05,01,25,15.80
2008,08,05,01,26,15.80
2008,08,05,01,27,15.70
2008,08,05,01,28,15.60
2008,08,05,01,29,15.50
2008,08,05,01,30,15.50
2008,08,05,01,31,15.40
2008,08,05,01,32,15.30
2008,08,05,01,33,15.30
2008,08,05,01,34,15.20
2008,08,05,01,35,15.20
2008,08,05,01,36,15.10
2008,08,05,01,37,15.00
2008,08,05,01,38,15.00
2008,08,05,01,39,14.90
2008,08,05,01,40,14.80
2008,08,05,01,41,14.80
2008,08,05,01,42,14.80
2008,08,05,01,43,14.80
2008,08,05,01,44,14.70
2008,08,05,01,45,14.70
2008,08,05,01,46,14.60
2008,08,05,01,47,14.60
2008,08,05,01,48,14.60
2008,08,05,01,49,14.50
2008,08,05,01,50,14.50
2008,08,05,01,51,14.40
2008,08,05,01,52,14.40
2008,08,05,01,53,14.40
2008,08,05,01,54,14.30
2008,08,05,01,55,14.30
2008,08,05,01,56,14.30
2008,08,05,01,57,14.20
2008,08,05,01,58,14.20
2008,08,05,01,59,14.20
2008,08,05,02,00,14.20
2008,08,05,02,01,14.20
2008,08,05,02,02,14.20
2008,08,05,02,03,14.20
2008,08,05,02,04,14.20
2008,08,05,02,05,14.10
2008,08,05,02,06,14.10
2008,08,05,02,07,14.10
2008,08,05,02,08,14.10
2008,08,05,02,09,14.10
2008,08,05,02,10,14.00
2008,08,05,02,11,14.00
2008,08,05,02,12,13.90
2008,08,05,02,13,13.90
2008,08,05,02,14,13.90
2008,08,05,02,15,13.80
2008,08,05,02,16,13.80
2008,08,05,02,17,13.80
2008,08,05,02,18,13.70
2008,08,05,02,19,13.70
2008,08,05,02,20,13.70
2008,08,05,02,21,13.70
2008,08,05,02,22,13.70
2008,08,05,02,23,13.70
2008,08,05,02,24,13.60
2008,08,05,02,25,13.60
2008,08,05,02,26,13.60
2008,08,05,02,27,13.50
2008,08,05,02,28,13.50
2008,08,05,02,29,13.50
2008,08,05,02,30,13.50
2008,08,05,02,31,13.50
2008,08,05,02,32,13.40
2008,08,05,02,33,13.40
2008,08,05,02,34,13.40
2008,08,05,02,35,13.40
2008,08,05,02,36,13.40
2008,08,05,02,37,13.30
2008,08,05,02,38,13.30
2008,08,05,02,39,13.30
2008,08,05,02,40,13.30
2008,08,05,02,41,13.30
2008,08,05,02,42,13.30
2008,08,05,02,43,13.30
2008,08,05,02,44,13.20
2008,08,05,02,45,13.20
2008,08,05,02,46,13.20
2008,08,05,02,47,13.20
2008,08,05,02,48,13.20
2008,08,05,02,49,13.20
2008,08,05,02,50,13.20
2008,08,05,02,51,13.20
2008,08,05,02,52,13.20
2008,08,05,02,53,13.20
2008,08,05,02,54,13.10
2008,08,05,02,55,13.10
2008,08,05,02,56,13.10
2008,08,05,02,57,13.10
2008,08,05,02,58,13.10
2008,08,05,02,59,13.10
2008,08,05,03,00,13.10
2008,08,05,03,01,13.10
2008,08,05,03,02,13.10
2008,08,05,03,03,13.20
2008,08,05,03,04,13.20
2008,08,05,03,05,13.20
2008,08,05,03,06,13.30
2008,08,05,03,07,13.30
2008,08,05,03,08,13.30
2008,08,05,03,09,13.40
2008,08,05,03,10,13.40
2008,08,05,03,11,13.50
2008,08,05,03,12,13.60
2008,08,05,03,13,13.60
2008,08,05,03,14,13.70
2008,08,05,03,15,13.70
2008,08,05,03,16,13.70
2008,08,05,03,17,13.70
2008,08,05,03,18,13.70
2008,08,05,03,19,13.70
2008,08,05,03,20,13.60
2008,08,05,03,21,13.60
2008,08,05,03,22,13.60
2008,08,05,03,23,13.50
2008,08,05,03,24,13.50
2008,08,05,03,25,13.40
2008,08,05,03,26,13.40
2008,08,05,03,27,13.30
2008,08,05,03,28,13.30
2008,08,05,03,29,13.30
2008,08,05,03,30,13.30
2008,08,05,03,31,13.20
2008,08,05,03,32,13.20
2008,08,05,03,33,13.10
2008,08,05,03,34,13.10
2008,08,05,03,35,13.10
2008,08,05,03,36,13.00
2008,08,05,03,37,13.00
2008,08,05,03,38,13.00
2008,08,05,03,39,12.90
2008,08,05,03,40,12.90
2008,08,05,03,41,12.90
2008,08,05,03,42,12.80
2008,08,05,03,43,12.80
2008,08,05,03,44,12.80
2008,08,05,03,45,12.80
2008,08,05,03,46,12.80
2008,08,05,03,47,12.80
2008,08,05,03,48,12.70
2008,08,05,03,49,12.70
2008,08,05,03,50,12.70
2008,08,05,03,51,12.70
2008,08,05,03,52,12.60
2008,08,05,03,53,12.60
2008,08,05,03,54,12.60
2008,08,05,03,55,12.60
2008,08,05,03,56,12.60
2008,08,05,03,57,12.50
2008,08,05,03,58,12.50
2008,08,05,03,59,12.50
2008,08,05,04,00,12.50
2008,08,05,04,01,12.50
2008,08,05,04,02,12.50
2008,08,05,04,03,12.40
2008,08,05,04,04,12.40
2008,08,05,04,05,12.40
2008,08,05,04,06,12.40
2008,08,05,04,07,12.40
2008,08,05,04,08,12.30
2008,08,05,04,09,12.30
2008,08,05,04,10,12.30
2008,08,05,04,11,12.30
2008,08,05,04,12,12.30
2008,08,05,04,13,12.30
2008,08,05,04,14,12.20
2008,08,05,04,15,12.20
2008,08,05,04,16,12.20
2008,08,05,04,17,12.20
2008,08,05,04,18,12.20
2008,08,05,04,19,12.10
2008,08,05,04,20,12.10
2008,08,05,04,21,12.10
2008,08,05,04,22,12.10
2008,08,05,04,23,12.10
2008,08,05,04,24,12.00
2008,08,05,04,25,12.00
2008,08,05,04,26,12.00
2008,08,05,04,27,12.00
2008,08,05,04,28,12.00
2008,08,05,04,29,11.90
2008,08,05,04,30,11.90
2008,08,05,04,31,11.90
2008,08,05,04,32,11.90
2008,08,05,04,33,11.90
2008,08,05,04,34,11.90
2008,08,05,04,35,11.80
2008,08,05,04,36,11.80
2008,08,05,04,37,11.80
2008,08,05,04,38,11.80
2008,08,05,04,39,11.80
2008,08,05,04,40,11.80
2008,08,05,04,41,11.80
2008,08,05,04,42,11.70
2008,08,05,04,43,11.70
2008,08,05,04,44,11.70
2008,08,05,04,45,11.70
2008,08,05,04,46,11.60
2008,08,05,04,47,11.60
2008,08,05,04,48,11.60
2008,08,05,04,49,11.60
2008,08,05,04,50,11.60
2008,08,05,04,51,11.60
2008,08,05,04,52,11.60
2008,08,05,04,53,11.50
2008,08,05,04,54,11.40
2008,08,05,04,55,11.40
2008,08,05,04,56,11.40
2008,08,05,04,57,11.40
2008,08,05,04,58,11.40
2008,08,05,04,59,11.50
2008,08,05,05,00,11.60
2008,08,05,05,01,11.60
2008,08,05,05,02,11.60
2008,08,05,05,03,11.60
2008,08,05,05,04,11.60
2008,08,05,05,05,11.60
2008,08,05,05,06,11.60
2008,08,05,05,07,11.60
2008,08,05,05,08,11.60
2008,08,05,05,09,11.60
2008,08,05,05,10,11.60
2008,08,05,05,11,11.60
2008,08,05,05,12,11.60
2008,08,05,05,13,11.60
2008,08,05,05,14,11.60
2008,08,05,05,15,11.60
2008,08,05,05,16,11.60
2008,08,05,05,17,11.60
2008,08,05,05,18,11.60
2008,08,05,05,19,11.60
2008,08,05,05,20,11.60
2008,08,05,05,21,11.60
2008,08,05,05,22,11.60
2008,08,05,05,23,11.60
2008,08,05,05,24,11.60
2008,08,05,05,25,11.60
2008,08,05,05,26,11.60
2008,08,05,05,27,11.60
2008,08,05,05,28,11.60
2008,08,05,05,29,11.60
2008,08,05,05,30,11.40
2008,08,05,05,31,11.40
2008,08,05,05,32,11.40
2008,08,05,05,33,11.40
2008,08,05,05,34,11.40
2008,08,05,05,35,11.60
2008,08,05,05,36,11.60
2008,08,05,05,37,11.60
2008,08,05,05,38,11.60
2008,08,05,05,39,11.60
2008,08,05,05,40,11.60
2008,08,05,05,41,11.60
2008,08,05,05,42,11.60
2008,08,05,05,43,11.60
2008,08,05,05,44,11.60
2008,08,05,05,45,11.60
2008,08,05,05,46,11.60
2008,08,05,05,47,11.60
2008,08,05,05,48,11.60
2008,08,05,05,49,11.60
2008,08,05,05,50,11.60
2008,08,05,05,51,11.60
2008,08,05,05,52,11.60
2008,08,05,05,53,11.60
2008,08,05,05,54,11.60
2008,08,05,05,55,11.70
2008,08,05,05,56,11.70
2008,08,05,05,57,11.70
2008,08,05,05,58,11.70
2008,08,05,05,59,11.70
2008,08,05,06,00,11.80
2008,08,05,06,01,11.80
2008,08,05,06,02,11.80
2008,08,05,06,03,11.80
2008,08,05,06,04,11.80
2008,08,05,06,05,11.80
2008,08,05,06,06,11.80
2008,08,05,06,07,11.70
2008,08,05,06,08,11.70
2008,08,05,06,09,11.70
2008,08,05,06,10,11.70
2008,08,05,06,11,11.70
2008,08,05,06,12,11.70
2008,08,05,06,13,11.70
2008,08,05,06,14,11.70
2008,08,05,06,15,11.70
2008,08,05,06,16,11.70
2008,08,05,06,17,11.60
2008,08,05,06,18,11.60
2008,08,05,06,19,11.60
2008,08,05,06,20,11.60
2008,08,05,06,21,11.60
2008,08,05,06,22,11.60
2008,08,05,06,23,11.60
2008,08,05,06,24,11.60
2008,08,05,06,25,11.60
2008,08,05,06,26,11.60
2008,08,05,06,27,11.60
2008,08,05,06,28,11.60
2008,08,05,06,29,11.60
2008,08,05,06,30,11.60
2008,08,05,06,31,11.60
2008,08,05,06,32,11.60
2008,08,05,06,33,11.60
2008,08,05,06,34,11.60
2008,08,05,06,35,11.60
2008,08,05,06,36,11.60
2008,08,05,06,37,11.60
2008,08,05,06,38,11.60
2008,08,05,06,39,11.60
2008,08,05,06,40,11.60
2008,08,05,06,41,11.60
2008,08,05,06,42,11.70
2008,08,05,06,43,11.70
2008,08,05,06,44,11.70
2008,08,05,06,45,11.70
2008,08,05,06,46,11.70
2008,08,05,06,47,11.70
2008,08,05,06,48,11.70
2008,08,05,06,49,11.70
2008,08,05,06,50,11.70
2008,08,05,06,51,11.70
2008,08,05,06,52,11.70
2008,08,05,06,53,11.70
2008,08,05,06,54,11.80
2008,08,05,06,55,11.80
2008,08,05,06,56,11.80
2008,08,05,06,57,11.80
2008,08,05,06,58,11.80
2008,08,05,06,59,11.90
2008,08,05,07,00,11.90
2008,08,05,07,01,12.00
2008,08,05,07,02,12.00
2008,08,05,07,03,12.00
2008,08,05,07,04,12.10
2008,08,05,07,05,12.10
2008,08,05,07,06,12.20
2008,08,05,07,07,12.20
2008,08,05,07,08,12.20
2008,08,05,07,09,12.20
2008,08,05,07,10,12.30
2008,08,05,07,11,12.30
2008,08,05,07,12,12.30
2008,08,05,07,13,12.30
2008,08,05,07,14,12.30
2008,08,05,07,15,12.30
2008,08,05,07,16,12.30
2008,08,05,07,17,12.40
2008,08,05,07,18,12.40
2008,08,05,07,19,12.40
2008,08,05,07,20,12.50
2008,08,05,07,21,12.50
2008,08,05,07,22,12.50
2008,08,05,07,23,12.60
2008,08,05,07,24,12.60
2008,08,05,07,25,12.60
2008,08,05,07,26,12.70
2008,08,05,07,27,12.80
2008,08,05,07,28,12.80
2008,08,05,07,29,12.80
2008,08,05,07,30,12.80
2008,08,05,07,31,12.80
2008,08,05,07,32,12.90
2008,08,05,07,33,12.90
2008,08,05,07,34,12.90
2008,08,05,07,35,13.00
2008,08,05,07,36,13.00
2008,08,05,07,37,13.10
2008,08,05,07,38,13.20
2008,08,05,07,39,13.20
2008,08,05,07,40,13.30
2008,08,05,07,41,13.30
2008,08,05,07,42,13.30
2008,08,05,07,43,13.40
2008,08,05,07,44,13.40
2008,08,05,07,45,13.50
2008,08,05,07,46,13.50
2008,08,05,07,47,13.60
2008,08,05,07,48,13.70
2008,08,05,07,49,13.70
2008,08,05,07,50,13.70
2008,08,05,07,51,13.80
2008,08,05,07,52,13.90
2008,08,05,07,53,13.90
2008,08,05,07,54,14.00
2008,08,05,07,55,14.10
2008,08,05,07,56,14.20
2008,08,05,07,57,14.40
2008,08,05,07,58,14.60
2008,08,05,07,59,14.70
2008,08,05,08,00,14.90
2008,08,05,08,01,15.00
2008,08,05,08,02,15.10
2008,08,05,08,03,15.20
2008,08,05,08,04,15.30
2008,08,05,08,05,15.50
2008,08,05,08,06,15.50
2008,08,05,08,07,15.70
2008,08,05,08,08,15.80
2008,08,05,08,09,15.80
2008,08,05,08,10,15.90
2008,08,05,08,11,16.00
2008,08,05,08,12,16.10
2008,08,05,08,13,16.20
2008,08,05,08,14,16.20
2008,08,05,08,15,16.30
2008,08,05,08,16,16.40
2008,08,05,08,17,16.40
2008,08,05,08,18,16.40
2008,08,05,08,19,16.50
2008,08,05,08,20,16.60
2008,08,05,08,21,16.60
2008,08,05,08,22,16.70
2008,08,05,08,23,16.70
2008,08,05,08,24,16.70
2008,08,05,08,25,16.70
2008,08,05,08,26,16.70
2008,08,05,08,27,16.70
2008,08,05,08,28,16.70
2008,08,05,08,29,16.70
2008,08,05,08,30,16.80
2008,08,05,08,31,16.80
2008,08,05,08,32,16.80
2008,08,05,08,33,16.80
2008,08,05,08,34,16.80
2008,08,05,08,35,16.80
2008,08,05,08,36,16.80
2008,08,05,08,37,16.90
2008,08,05,08,38,16.90
2008,08,05,08,39,16.90
2008,08,05,08,40,16.90
2008,08,05,08,41,17.00
2008,08,05,08,42,17.00
2008,08,05,08,43,17.00
2008,08,05,08,44,17.00
2008,08,05,08,45,17.10
2008,08,05,08,46,17.10
2008,08,05,08,47,17.10
2008,08,05,08,48,17.10
2008,08,05,08,49,17.10
2008,08,05,08,50,17.10
2008,08,05,08,51,17.10
2008,08,05,08,52,17.10
2008,08,05,08,53,17.10
2008,08,05,08,54,17.20
2008,08,05,08,55,17.20
2008,08,05,08,56,17.20
2008,08,05,08,57,17.20
2008,08,05,08,58,17.20
2008,08,05,08,59,17.30
2008,08,05,09,00,17.30
2008,08,05,09,01,17.30
2008,08,05,09,02,17.30
2008,08,05,09,03,17.30
2008,08,05,09,04,17.30
2008,08,05,09,05,17.30
2008,08,05,09,06,17.30
2008,08,05,09,07,17.30
2008,08,05,09,08,17.20
2008,08,05,09,09,17.10
2008,08,05,09,10,17.10
2008,08,05,09,11,17.10
2008,08,05,09,12,17.10
2008,08,05,09,13,17.10
2008,08,05,09,14,17.10
2008,08,05,09,15,17.10
2008,08,05,09,16,17.20
2008,08,05,09,17,17.20
2008,08,05,09,18,17.20
2008,08,05,09,19,17.20
2008,08,05,09,20,17.30
2008,08,05,09,21,17.30
2008,08,05,09,22,17.30
2008,08,05,09,23,17.30
2008,08,05,09,24,17.30
2008,08,05,09,25,17.30
2008,08,05,09,26,17.30
2008,08,05,09,27,17.30
2008,08,05,09,28,17.30
2008,08,05,09,29,17.30
2008,08,05,09,30,17.30
2008,08,05,09,31,17.30
2008,08,05,09,32,17.30
2008,08,05,09,33,17.30
2008,08,05,09,34,17.30
2008,08,05,09,35,17.30
2008,08,05,09,36,17.30
2008,08,05,09,37,17.40
2008,08,05,09,38,17.40
2008,08,05,09,39,17.50
2008,08,05,09,40,17.50
2008,08,05,09,41,17.60
2008,08,05,09,42,17.60
2008,08,05,09,43,17.70
2008,08,05,09,44,17.70
2008,08,05,09,45,17.70
2008,08,05,09,46,17.70
2008,08,05,09,47,17.70
2008,08,05,09,48,17.70
2008,08,05,09,49,17.80
2008,08,05,09,50,17.80
2008,08,05,09,51,17.80
2008,08,05,09,52,17.80
2008,08,05,09,53,17.80
2008,08,05,09,54,17.90
2008,08,05,09,55,17.90
2008,08,05,09,56,17.90
2008,08,05,09,57,17.90
2008,08,05,09,58,17.90
2008,08,05,09,59,18.00
2008,08,05,10,00,18.10
2008,08,05,10,01,18.10
2008,08,05,10,02,18.10
2008,08,05,10,03,18.20
2008,08,05,10,04,18.20
2008,08,05,10,05,18.20
2008,08,05,10,06,18.20
2008,08,05,10,07,18.20
2008,08,05,10,08,18.20
2008,08,05,10,09,18.20
2008,08,05,10,10,18.30
2008,08,05,10,11,18.30
2008,08,05,10,12,18.20
2008,08,05,10,13,18.20
2008,08,05,10,14,18.20
2008,08,05,10,15,18.20
2008,08,05,10,16,18.20
2008,08,05,10,17,18.20
2008,08,05,10,18,18.20
2008,08,05,10,19,18.20
2008,08,05,10,20,18.20
2008,08,05,10,21,18.20
2008,08,05,10,22,18.20
2008,08,05,10,23,18.10
2008,08,05,10,24,17.90
2008,08,05,10,25,17.90
2008,08,05,10,26,17.90
2008,08,05,10,27,17.90
2008,08,05,10,28,17.90
2008,08,05,10,29,18.00
2008,08,05,10,30,18.10
2008,08,05,10,31,18.10
2008,08,05,10,32,18.20
2008,08,05,10,33,18.20
2008,08,05,10,34,18.20
2008,08,05,10,35,18.10
2008,08,05,10,36,18.10
2008,08,05,10,37,18.10
2008,08,05,10,38,18.00
2008,08,05,10,39,17.90
2008,08,05,10,40,17.90
2008,08,05,10,41,17.90
2008,08,05,10,42,17.90
2008,08,05,10,43,17.90
2008,08,05,10,44,17.90
2008,08,05,10,45,17.80
2008,08,05,10,46,17.80
2008,08,05,10,47,17.70
2008,08,05,10,48,17.70
2008,08,05,10,49,17.70
2008,08,05,10,50,17.70
2008,08,05,10,51,17.70
2008,08,05,10,52,17.80
2008,08,05,10,53,17.80
2008,08,05,10,54,17.80
2008,08,05,10,55,17.80
2008,08,05,10,56,17.80
2008,08,05,10,57,17.70
2008,08,05,10,58,17.70
2008,08,05,10,59,17.80
2008,08,05,11,00,17.90
2008,08,05,11,01,17.90
2008,08,05,11,02,17.90
2008,08,05,11,03,18.00
2008,08,05,11,04,18.10
2008,08,05,11,05,18.20
2008,08,05,11,06,18.30
2008,08,05,11,07,18.30
2008,08,05,11,08,18.40
2008,08,05,11,09,18.50
2008,08,05,11,10,18.50
2008,08,05,11,11,18.60
2008,08,05,11,12,18.60
2008,08,05,11,13,18.60
2008,08,05,11,14,18.70
2008,08,05,11,15,18.70
2008,08,05,11,16,18.80
2008,08,05,11,17,18.80
2008,08,05,11,18,18.80
2008,08,05,11,19,18.70
2008,08,05,11,20,18.60
2008,08,05,11,21,18.60
2008,08,05,11,22,18.60
2008,08,05,11,23,18.60
2008,08,05,11,24,18.70
2008,08,05,11,25,18.70
2008,08,05,11,26,18.70
2008,08,05,11,27,18.70
2008,08,05,11,28,18.70
2008,08,05,11,29,18.70
2008,08,05,11,30,18.80
2008,08,05,11,31,18.90
2008,08,05,11,32,18.90
2008,08,05,11,33,18.90
2008,08,05,11,34,18.90
2008,08,05,11,35,18.90
2008,08,05,11,36,19.00
2008,08,05,11,37,19.10
2008,08,05,11,38,19.10
2008,08,05,11,39,19.20
2008,08,05,11,40,19.30
2008,08,05,11,41,19.30
2008,08,05,11,42,19.40
2008,08,05,11,43,19.40
2008,08,05,11,44,19.40
2008,08,05,11,45,19.40
2008,08,05,11,46,19.50
2008,08,05,11,47,19.50
2008,08,05,11,48,19.50
2008,08,05,11,49,19.50
2008,08,05,11,50,19.50
2008,08,05,11,51,19.60
2008,08,05,11,52,19.60
2008,08,05,11,53,19.50
2008,08,05,11,54,19.40
2008,08,05,11,55,19.40
2008,08,05,11,56,19.40
2008,08,05,11,57,19.40
2008,08,05,11,58,19.40
2008,08,05,11,59,19.40
2008,08,05,12,00,19.40
2008,08,05,12,01,19.30
2008,08,05,12,02,19.30
2008,08,05,12,03,19.20
2008,08,05,12,04,19.20
2008,08,05,12,05,19.20
2008,08,05,12,06,19.30
2008,08,05,12,07,19.40
2008,08,05,12,08,19.40
2008,08,05,12,09,19.50
2008,08,05,12,10,19.50
2008,08,05,12,11,19.60
2008,08,05,12,12,19.60
2008,08,05,12,13,19.60
2008,08,05,12,14,19.60
2008,08,05,12,15,19.60
2008,08,05,12,16,19.70
2008,08,05,12,17,19.70
2008,08,05,12,18,19.60
2008,08,05,12,19,19.60
2008,08,05,12,20,19.60
2008,08,05,12,21,19.70
2008,08,05,12,22,19.70
2008,08,05,12,23,19.80
2008,08,05,12,24,19.80
2008,08,05,12,25,19.90
2008,08,05,12,26,20.00
2008,08,05,12,27,20.10
2008,08,05,12,28,20.20
2008,08,05,12,29,20.20
2008,08,05,12,30,20.20
2008,08,05,12,31,20.20
2008,08,05,12,32,20.20
2008,08,05,12,33,20.10
2008,08,05,12,34,20.10
2008,08,05,12,35,20.10
2008,08,05,12,36,20.20
2008,08,05,12,37,20.20
2008,08,05,12,38,20.20
2008,08,05,12,39,20.30
2008,08,05,12,40,20.20
2008,08,05,12,41,20.20
2008,08,05,12,42,20.20
2008,08,05,12,43,20.20
2008,08,05,12,44,20.20
2008,08,05,12,45,20.20
2008,08,05,12,46,20.20
2008,08,05,12,47,20.30
2008,08,05,12,48,20.40
2008,08,05,12,49,20.50
2008,08,05,12,50,20.50
2008,08,05,12,51,20.60
2008,08,05,12,52,20.60
2008,08,05,12,53,20.60
2008,08,05,12,54,20.60
2008,08,05,12,55,20.50
2008,08,05,12,56,20.50
2008,08,05,12,57,20.60
2008,08,05,12,58,20.60
2008,08,05,12,59,20.70
2008,08,05,13,00,20.80
2008,08,05,13,01,20.90
2008,08,05,13,02,21.00
2008,08,05,13,03,21.00
2008,08,05,13,04,21.20
2008,08,05,13,05,21.30
2008,08,05,13,06,21.40
2008,08,05,13,07,21.50
2008,08,05,13,08,21.60
2008,08,05,13,09,21.70
2008,08,05,13,10,21.70
2008,08,05,13,11,21.60
2008,08,05,13,12,21.60
2008,08,05,13,13,21.60
2008,08,05,13,14,21.50
2008,08,05,13,15,21.40
2008,08,05,13,16,21.40
2008,08,05,13,17,21.50
2008,08,05,13,18,21.60
2008,08,05,13,19,21.60
2008,08,05,13,20,21.60
2008,08,05,13,21,21.70
2008,08,05,13,22,21.70
2008,08,05,13,23,21.70
2008,08,05,13,24,21.80
2008,08,05,13,25,21.80
2008,08,05,13,26,21.80
2008,08,05,13,27,21.80
2008,08,05,13,28,21.70
2008,08,05,13,29,21.70
2008,08,05,13,30,21.70
2008,08,05,13,31,21.70
2008,08,05,13,32,21.70
2008,08,05,13,33,21.80
2008,08,05,13,34,21.90
2008,08,05,13,35,22.00
2008,08,05,13,36,22.00
2008,08,05,13,37,22.10
2008,08,05,13,38,22.10
2008,08,05,13,39,22.20
2008,08,05,13,40,22.20
2008,08,05,13,41,22.20
2008,08,05,13,42,22.20
2008,08,05,13,43,22.20
2008,08,05,13,44,22.20
2008,08,05,13,45,22.30
2008,08,05,13,46,22.40
2008,08,05,13,47,22.50
2008,08,05,13,48,22.60
2008,08,05,13,49,22.60
2008,08,05,13,50,22.60
2008,08,05,13,51,22.60
2008,08,05,13,52,22.60
2008,08,05,13,53,22.60
2008,08,05,13,54,22.60
2008,08,05,13,55,22.70
2008,08,05,13,56,22.70
2008,08,05,13,57,22.70
2008,08,05,13,58,22.80
2008,08,05,13,59,22.80
2008,08,05,14,00,22.70
2008,08,05,14,01,22.70
2008,08,05,14,02,22.80
2008,08,05,14,03,22.90
2008,08,05,14,04,22.90
2008,08,05,14,05,22.90
2008,08,05,14,06,22.90
2008,08,05,14,07,22.90
2008,08,05,14,08,22.90
2008,08,05,14,09,22.90
2008,08,05,14,10,23.00
2008,08,05,14,11,23.10
2008,08,05,14,12,23.20
2008,08,05,14,13,23.30
2008,08,05,14,14,23.30
2008,08,05,14,15,23.20
2008,08,05,14,16,23.30
2008,08,05,14,17,23.20
2008,08,05,14,18,23.20
2008,08,05,14,19,23.20
2008,08,05,14,20,23.30
2008,08,05,14,21,23.30
2008,08,05,14,22,23.30
2008,08,05,14,23,23.40
2008,08,05,14,24,23.40
2008,08,05,14,25,23.40
2008,08,05,14,26,23.40
2008,08,05,14,27,23.30
2008,08,05,14,28,23.40
2008,08,05,14,29,23.50
2008,08,05,14,30,23.60
2008,08,05,14,31,23.60
2008,08,05,14,32,23.60
2008,08,05,14,33,23.60
2008,08,05,14,34,23.60
2008,08,05,14,35,23.70
2008,08,05,14,36,23.70
2008,08,05,14,37,23.80
2008,08,05,14,38,24.00
2008,08,05,14,39,24.10
2008,08,05,14,40,24.10
2008,08,05,14,41,24.20
2008,08,05,14,42,24.30
2008,08,05,14,43,24.20
2008,08,05,14,44,24.30
2008,08,05,14,45,24.30
2008,08,05,14,46,24.40
2008,08,05,14,47,24.40
2008,08,05,14,48,24.30
2008,08,05,14,49,24.30
2008,08,05,14,50,24.20
2008,08,05,14,51,24.10
2008,08,05,14,52,24.10
2008,08,05,14,53,24.00
2008,08,05,14,54,23.90
2008,08,05,14,55,23.80
2008,08,05,14,56,23.80
2008,08,05,14,57,23.80
2008,08,05,14,58,23.90
2008,08,05,14,59,24.00
2008,08,05,15,00,24.10
2008,08,05,15,01,24.10
2008,08,05,15,02,24.20
2008,08,05,15,03,24.20
2008,08,05,15,04,24.30
2008,08,05,15,05,24.30
2008,08,05,15,06,24.40
2008,08,05,15,07,24.50
2008,08,05,15,08,24.60
2008,08,05,15,09,24.60
2008,08,05,15,10,24.70
2008,08,05,15,11,24.70
2008,08,05,15,12,24.70
2008,08,05,15,13,24.70
2008,08,05,15,14,24.60
2008,08,05,15,15,24.50
2008,08,05,15,16,24.50
2008,08,05,15,17,24.50
2008,08,05,15,18,24.50
2008,08,05,15,19,24.40
2008,08,05,15,20,24.30
2008,08,05,15,21,24.20
2008,08,05,15,22,24.20
2008,08,05,15,23,24.30
2008,08,05,15,24,24.30
2008,08,05,15,25,24.40
2008,08,05,15,26,24.50
2008,08,05,15,27,24.50
2008,08,05,15,28,24.60
2008,08,05,15,29,24.50
2008,08,05,15,30,24.60
2008,08,05,15,31,24.60
2008,08,05,15,32,24.70
2008,08,05,15,33,24.70
2008,08,05,15,34,24.60
2008,08,05,15,35,24.60
2008,08,05,15,36,24.60
2008,08,05,15,37,24.70
2008,08,05,15,38,24.80
2008,08,05,15,39,24.80
2008,08,05,15,40,24.80
2008,08,05,15,41,24.90
2008,08,05,15,42,24.90
2008,08,05,15,43,24.90
2008,08,05,15,44,25.00
2008,08,05,15,45,24.90
2008,08,05,15,46,24.90
2008,08,05,15,47,24.80
2008,08,05,15,48,24.70
2008,08,05,15,49,24.70
2008,08,05,15,50,24.70
2008,08,05,15,51,24.70
2008,08,05,15,52,24.60
2008,08,05,15,53,24.60
2008,08,05,15,54,24.60
2008,08,05,15,55,24.60
2008,08,05,15,56,24.70
2008,08,05,15,57,24.70
2008,08,05,15,58,24.80
2008,08,05,15,59,24.90
2008,08,05,16,00,24.90
2008,08,05,16,01,25.00
2008,08,05,16,02,25.20
2008,08,05,16,03,25.30
2008,08,05,16,04,25.40
2008,08,05,16,05,25.40
2008,08,05,16,06,25.40
2008,08,05,16,07,25.40
2008,08,05,16,08,25.50
2008,08,05,16,09,25.50
2008,08,05,16,10,25.60
2008,08,05,16,11,25.60
2008,08,05,16,12,25.60
2008,08,05,16,13,25.70
2008,08,05,16,14,25.80
2008,08,05,16,15,25.80
2008,08,05,16,16,25.80
2008,08,05,16,17,25.80
2008,08,05,16,18,25.90
2008,08,05,16,19,25.90
2008,08,05,16,20,26.00
2008,08,05,16,21,25.90
2008,08,05,16,22,25.80
2008,08,05,16,23,25.80
2008,08,05,16,24,25.70
2008,08,05,16,25,25.60
2008,08,05,16,26,25.60
2008,08,05,16,27,25.60
2008,08,05,16,28,25.50
2008,08,05,16,29,25.50
2008,08,05,16,30,25.60
2008,08,05,16,31,25.70
2008,08,05,16,32,25.70
2008,08,05,16,33,25.70
2008,08,05,16,34,25.80
2008,08,05,16,35,25.90
2008,08,05,16,36,26.00
2008,08,05,16,37,26.10
2008,08,05,16,38,26.20
2008,08,05,16,39,26.30
2008,08,05,16,40,26.40
2008,08,05,16,41,26.40
2008,08,05,16,42,26.40
2008,08,05,16,43,26.40
2008,08,05,16,44,26.30
2008,08,05,16,45,26.20
2008,08,05,16,46,26.10
2008,08,05,16,47,26.00
2008,08,05,16,48,26.00
2008,08,05,16,49,25.90
2008,08,05,16,50,25.90
2008,08,05,16,51,26.00
2008,08,05,16,52,26.00
2008,08,05,16,53,26.10
2008,08,05,16,54,26.20
2008,08,05,16,55,26.30
2008,08,05,16,56,26.40
2008,08,05,16,57,26.50
2008,08,05,16,58,26.60
2008,08,05,16,59,26.80
2008,08,05,17,00,26.90
2008,08,05,17,01,26.90
2008,08,05,17,02,26.90
2008,08,05,17,03,26.90
2008,08,05,17,04,26.90
2008,08,05,17,05,26.80
2008,08,05,17,06,26.80
2008,08,05,17,07,26.90
2008,08,05,17,08,26.90
2008,08,05,17,09,26.90
2008,08,05,17,10,26.80
2008,08,05,17,11,26.80
2008,08,05,17,12,26.90
2008,08,05,17,13,26.90
2008,08,05,17,14,26.90
2008,08,05,17,15,26.90
2008,08,05,17,16,26.90
2008,08,05,17,17,26.90
2008,08,05,17,18,26.80
2008,08,05,17,19,26.70
2008,08,05,17,20,26.60
2008,08,05,17,21,26.60
2008,08,05,17,22,26.50
2008,08,05,17,23,26.40
2008,08,05,17,24,26.40
2008,08,05,17,25,26.40
2008,08,05,17,26,26.40
2008,08,05,17,27,26.60
2008,08,05,17,28,26.60
2008,08,05,17,29,26.60
2008,08,05,17,30,26.70
2008,08,05,17,31,26.80
2008,08,05,17,32,26.80
2008,08,05,17,33,26.70
2008,08,05,17,34,26.70
2008,08,05,17,35,26.80
2008,08,05,17,36,26.80
2008,08,05,17,37,26.80
2008,08,05,17,38,26.70
2008,08,05,17,39,26.70
2008,08,05,17,40,26.70
2008,08,05,17,41,26.70
2008,08,05,17,42,26.80
2008,08,05,17,43,26.80
2008,08,05,17,44,26.90
2008,08,05,17,45,27.00
2008,08,05,17,46,27.10
2008,08,05,17,47,27.20
2008,08,05,17,48,27.20
2008,08,05,17,49,27.20
2008,08,05,17,50,27.20
2008,08,05,17,51,27.20
2008,08,05,17,52,27.20
2008,08,05,17,53,27.30
2008,08,05,17,54,27.20
2008,08,05,17,55,27.20
2008,08,05,17,56,27.10
2008,08,05,17,57,27.00
2008,08,05,17,58,26.90
2008,08,05,17,59,26.80
2008,08,05,18,00,26.80
2008,08,05,18,01,26.80
2008,08,05,18,02,26.90
2008,08,05,18,03,26.90
2008,08,05,18,04,26.80
2008,08,05,18,05,26.80
2008,08,05,18,06,26.80
2008,08,05,18,07,26.80
2008,08,05,18,08,26.80